Back to catalog

IUS R/B(1)

AliveHEO
NORAD 22315·ROCKET BODY·🇺🇸 United States

Launched Jan 13, 1993 from Cape Canaveral Space Force Station

Loading…

Next Passes (next 24 hours)

TLE

FreshSource: Space-Track

Epoch: Sep 13, 2026, 03:09 UTC

1 22315U 93003C   26256.13187294  .00004814  00000-0  81705-3 0  9995
2 22315  26.8350 192.6039 6008836 160.0671 240.4075  4.03773079186918

Track IUS R/B(1) in real time with AllMySat

Download on the App Store